Location: Le Castellard
(44.1862°N, 6.1301°E)
Time: 22:50:15
(UTC+00:00)

Cosmos 2227 Rocket - Pass Details

Date: 18 January 2020
Orbit: 841 x 843 km, 71.0° (Epoch: 16 February)

Event Time Altitude Azimuth Distance (km) Brightness Sun altitude
Exits shadow 04:34:43 81° 276° (W) 857 2.0 -26.8°
Maximum altitude 04:34:52 82° 247° (WSW) 855 2.0 -26.7°
Drops below altitude 10° 04:40:30 10° 160° (SSE) 2,451 4.9 -25.7°
Sets 04:42:55 0° 160° (SSE) 3,381 5.7 -25.3°
